Airport Information

KPUW - Pullman-Moscow Rgnl Airport

KPUW 191853Z AUTO 25015G23KT 10SM FEW046 17/04 A3004 RMK AO2 SLP163 T01720044


  • General Information

  • Coordinates: N 46°44'37"/ W 117°6'34"
  • Location: N/A
  • Surveyed Elevation: 2556 MSL

Operations

Flow Name Active Runways Conditions

Green background denotes normal operations.


Common Frequencies

Callsign Frequency Position Name

More at the Document Center


Charts